Regional Weather Roundup
Issued by NWS

Home | Current Version | Previous Version | Text Only | Print | Product List | Glossary On
Versions: 1 2 3 4 5 6 7 8 9 10 11 12 13 14 15 16 17 18 19 20 21 22 23 24 25 26 27 28 29 30 31 32 33 34 35 36 37 38 39 40 41 42 43 44 45 46 47 48 49 50
138
ASUS43 KIND 270709
RWRIN

WEATHER ROUNDUP FOR INDIANA
NATIONAL WEATHER SERVICE INDIANAPOLIS IN
300 AM EDT THU APR 27 2017

NOTE: "FAIR" INDICATES FEW OR NO CLOUDS BELOW 12,000 FEET WITH NO
SIGNIFICANT WEATHER AND/OR OBSTRUCTIONS TO VISIBILITY.

* - STATION DOES NOT REPORT WEATHER SUCH AS PRECIPITATION OR FOG.

+ - STATION NOT QUALITY CONTROLLED BY THE NATIONAL WEATHER SERVICE.
    USE DATA WITH CAUTION...ESPECIALLY DEWPOINT AND RELATIVE
    HUMIDITY OBSERVATIONS.

INZ001>003-010>013-019-020-270800-
NORTHWEST INDIANA

CITY           SKY/WX    TMP DP  RH WIND       PRES   REMARKS
GARY /AIRPORT/ CLOUDY    62  60  94 SE7       29.40F
KNOX *+        CLOUDY    59  55  88 S5        29.44F
LA PORTE +     CLOUDY    60  59  97 SE5       29.44F
MICHIGAN CITY+ CLOUDY    59  59 100 CALM      29.42F
MONTICELLO +   CLOUDY    60  59  96 S5        29.46F
RENSSELAER +   CLOUDY    61  59  94 S13       29.44F
VALPARAISO     CLOUDY    62  61  96 S8        29.43F

$$

LMZ046-743>745-270800-
SOUTHERN LAKE MICHIGAN

STATION/POSITION TIME  TEMP    WIND        PRES    WAVE
                       AIR SEA DIR/SP/G            HT
                 (UTC) (F)     (DEG/KT/KT) (MB)    (FT)
BURNS HARBOR     0700   61     160/  7/ 15  996.3
MICHIGAN CITY    0640   60     140/  7/  8   N/A
5NW MICH CITY    0700   56 49                N/A     0

$$

INZ004-005-014>016-021>024-270800-
NORTH CENTRAL INDIANA

CITY           SKY/WX    TMP DP  RH WIND       PRES   REMARKS
GOSHEN         CLOUDY    62  57  83 SE3       29.44F
LOGANSPORT +   CLOUDY    59  59 100 S3        29.48F
PERU/GRISSOM   CLOUDY    61  61 100 W10       29.47S
ROCHESTER +    CLOUDY    63  61  94 W7        29.46S
SOUTH BEND     CLOUDY    60  59  96 S6        29.44F
WARSAW +       CLOUDY    61  59  94 CALM      29.45F

$$

INZ006>009-017-018-025>027-270800-
NORTHEAST INDIANA

CITY           SKY/WX    TMP DP  RH WIND       PRES   REMARKS
ANGOLA *+      CLEAR     66  57  72 S9        29.46F
AUBURN +       MOCLDY    66  54  63 S5        29.48F
FORT WAYNE     CLOUDY    68  55  63 S16       29.47F
HUNTINGTON +   MOCLDY    66  56  69 S7        29.46F
KENDALLVILLE + CLOUDY    65  55  70 S12       29.46F

$$

INZ028-029-035-036-043>045-051>053-270800-
WEST CENTRAL INDIANA

CITY           SKY/WX    TMP DP  RH WIND       PRES   REMARKS
CRAWFORDSVL +  RAIN      58  58 100 S12       29.52R
GREENCASTLE +  CLOUDY    57  55  94 SW5       29.54R
LAFAYETTE      CLOUDY    60  59  96 S9        29.48S
TERRE HAUTE    LGT RAIN  60  57  89 S9        29.53R

$$

INZ030>032-037>040-046>048-054>057-064-065-270800-
CENTRAL INDIANA

CITY           SKY/WX    TMP DP  RH WIND       PRES   REMARKS
CP ATTERBURY + CLOUDY    63  55  77 W20G29    29.57R
FRANKFORT +    DRIZZLE   63  60  93 SW15      29.52R
GREENWOOD *+   CLOUDY    65  58  78 W17G28    29.57R
INDIANAPOLIS   LGT RAIN  61  58  90 SW20G28   29.56R FOG
-EAGLE CREEK   LGT RAIN  63  57  81 SW12G22   29.54R
KOKOMO +       LGT RAIN  62  60  93 W12       29.49S
MARION +       CLOUDY    66  55  68 S14       29.48F
MT COMFORT *+  CLOUDY    66  57  72 SW14G21   29.51R
SHELBYVILLE    LGT RAIN  70  57  63 W28G33    29.53R
ZIONSVILLE +   CLOUDY    60  58  92 SW10      29.53R

$$

INZ033-034-041-042-049-050-058-059-270800-
EAST CENTRAL INDIANA

CITY           SKY/WX    TMP DP  RH WIND       PRES   REMARKS
MUNCIE         MOCLDY    73  55  53 S14G23    29.48F
RICHMOND +     CLOUDY    63  52  67 S13       29.56F

$$

INZ060-061-067>069-081>083-085>088-270800-
SOUTHWEST INDIANA

CITY           SKY/WX    TMP DP  RH WIND       PRES   REMARKS
EVANSVILLE     LGT RAIN  60  57  89 SE9G22    29.47F
HUNTINGBURG *+ TSTM      60  59  96 VRB6      29.59S
WASHINGTON +   RAIN      60  58  94 SE8       29.57S

$$

INZ062-063-066-070>080-084-089>092-270800-
SOUTH CENTRAL AND SOUTHEAST INDIANA

CITY           SKY/WX    TMP DP  RH WIND       PRES   REMARKS
BEDFORD +      CLOUDY    61  55  82 SW7       29.58S
BLOOMINGTON    LGT RAIN  60  57  89 SW3       29.56R
MADISON *+     CLOUDY    70  54  56 S13       29.58F
NORTH VERNON + LGT RAIN  70  57  64 SW21G26   29.55F
SEYMOUR +      CLOUDY    66  55  68 W23G40    29.57R

$$





USA.gov is the U.S. government's official web portal to all federal, state and local government web resources and services.